| time (UTC) | temp F | wind direction | speed knots | gust knots | rain 1hr in | rain 24hr in | rain mn in | humidity % | barometer mb |
| 20260905144352 | 91 | 117 | 1.7 | 9.6 | 0.00 | 0.00 | 0.00 | 36 | 1023.0 |
| 20260905143349 | 92 | 131 | 4.3 | 8.7 | 0.00 | 0.00 | 0.00 | 34 | 1023.2 |
| 20260905142402 | 92 | 88 | 4.3 | 11.3 | 0.00 | 0.00 | 0.00 | 33 | 1023.2 |
| 20260905141358 | 92 | 72 | 2.6 | 10.4 | 0.00 | 0.00 | 0.00 | 32 | 1023.1 |
| 20260905140359 | 93 | 147 | 4.3 | 10.4 | 0.00 | 0.00 | 0.00 | 32 | 1023.1 |
| 20260905135348 | 92 | 144 | 4.3 | 10.4 | 0.00 | 0.00 | 0.00 | 32 | 1023.0 |
| 20260905134342 | 93 | 129 | 3.5 | 11.3 | 0.00 | 0.00 | 0.00 | 31 | 1023.2 |
| 20260905133344 | 93 | 93 | 6.1 | 11.3 | 0.00 | 0.00 | 0.00 | 31 | 1023.3 |
| 20260905132401 | 93 | 90 | 2.6 | 10.4 | 0.00 | 0.00 | 0.00 | 30 | 1023.2 |
| 20260905131349 | 93 | 94 | 5.2 | 10.4 | 0.00 | 0.00 | 0.00 | 30 | 1023.3 |
| 20260905130351 | 93 | 130 | 6.1 | 11.3 | 0.00 | 0.00 | 0.00 | 29 | 1023.4 |
| 20260905125346 | 93 | 126 | 4.3 | 12.2 | 0.00 | 0.00 | 0.00 | 29 | 1023.4 |
| 20260905124359 | 94 | 108 | 4.3 | 11.3 | 0.00 | 0.00 | 0.00 | 28 | 1023.3 |
| 20260905123351 | 95 | 94 | 1.7 | 7.0 | 0.00 | 0.00 | 0.00 | 29 | 1023.4 |
| 20260905122342 | 94 | 105 | 4.3 | 11.3 | 0.00 | 0.00 | 0.00 | 29 | 1023.3 |
| 20260905121351 | 94 | 177 | 3.5 | 8.7 | 0.00 | 0.00 | 0.00 | 29 | 1023.5 |
| 20260905120350 | 94 | 229 | 3.5 | 9.6 | 0.00 | 0.00 | 0.00 | 29 | 1023.4 |
| 20260905115401 | 94 | 139 | 5.2 | 9.6 | 0.00 | 0.00 | 0.00 | 30 | 1023.5 |
| 20260905114352 | 94 | 141 | 3.5 | 8.7 | 0.00 | 0.00 | 0.00 | 29 | 1023.5 |
| 20260905113347 | 94 | 260 | 3.5 | 11.3 | 0.00 | 0.00 | 0.00 | 30 | 1023.6 |
| 20260905112342 | 94 | 142 | 6.1 | 11.3 | 0.00 | 0.00 | 0.00 | 30 | 1023.4 |
| 20260905111359 | 94 | 97 | 5.2 | 12.2 | 0.00 | 0.00 | 0.00 | 30 | 1023.3 |
| 20260905110351 | 94 | 107 | 4.3 | 10.4 | 0.00 | 0.00 | 0.00 | 30 | 1023.3 |
| 20260905105345 | 94 | 165 | 6.1 | 8.7 | 0.00 | 0.00 | 0.00 | 30 | 1023.3 |
| 20260905104401 | 94 | 66 | 0.9 | 11.3 | 0.00 | 0.00 | 0.00 | 31 | 1023.3 |
| 20260905103358 | 94 | 128 | 7.0 | 10.4 | 0.00 | 0.00 | 0.00 | 30 | 1023.4 |
| 20260905102343 | 94 | 94 | 2.6 | 10.4 | 0.00 | 0.00 | 0.00 | 31 | 1023.3 |
| 20260905101358 | 94 | 98 | 3.5 | 7.8 | 0.00 | 0.00 | 0.00 | 31 | 1023.4 |
| 20260905100354 | 93 | 80 | 2.6 | 7.8 | 0.00 | 0.00 | 0.00 | 34 | 1023.3 |
| 20260905095348 | 92 | 11 | 0.9 | 3.5 | 0.00 | 0.00 | 0.00 | 38 | 1023.2 |
| 20260905094402 | 91 | 10 | 0.0 | 2.6 | 0.00 | 0.00 | 0.00 | 41 | 1023.3 |
| 20260905093400 | 90 | 10 | 1.7 | 3.5 | 0.00 | 0.00 | 0.00 | 43 | 1023.3 |
| 20260905092348 | 89 | 18 | 0.0 | 1.7 | 0.00 | 0.00 | 0.00 | 45 | 1023.3 |
| 20260905091345 | 87 | 18 | 0.0 | 2.6 | 0.00 | 0.00 | 0.00 | 49 | 1023.2 |
| 20260905090401 | 86 | 21 | 0.0 | 2.6 | 0.00 | 0.00 | 0.00 | 52 | 1023.3 |
| 20260905085353 | 85 | 23 | 0.0 | 3.5 | 0.00 | 0.00 | 0.00 | 55 | 1023.1 |
| 20260905084344 | 84 | 28 | 0.0 | 2.6 | 0.00 | 0.00 | 0.00 | 56 | 1023.1 |
| 20260905083403 | 83 | 27 | 0.9 | 2.6 | 0.00 | 0.00 | 0.00 | 58 | 1023.0 |
| 20260905082355 | 82 | 31 | 0.0 | 2.6 | 0.00 | 0.00 | 0.00 | 60 | 1022.9 |
| 20260905081350 | 81 | 34 | 1.7 | 2.6 | 0.00 | 0.00 | 0.00 | 62 | 1023.0 |
| 20260905080350 | 80 | 33 | 0.0 | 2.6 | 0.00 | 0.00 | 0.00 | 64 | 1023.0 |
| 20260905075348 | 80 | 35 | 0.0 | 1.7 | 0.00 | 0.00 | 0.00 | 67 | 1022.9 |
| 20260905074347 | 79 | 35 | 0.0 | 2.6 | 0.00 | 0.00 | 0.00 | 69 | 1022.8 |
| 20260905073347 | 78 | 35 | 0.9 | 1.7 | 0.00 | 0.00 | 0.00 | 72 | 1022.8 |
| 20260905072401 | 77 | 35 | 0.0 | 1.7 | 0.00 | 0.00 | 0.00 | 74 | 1022.8 |
| 20260905071356 | 76 | 35 | 0.9 | 2.6 | 0.00 | 0.00 | 0.00 | 76 | 1022.8 |
| 20260905070359 | 75 | 35 | 0.0 | 2.6 | 0.00 | 0.00 | 0.00 | 79 | 1022.8 |
| 20260905065347 | 74 | 35 | 0.0 | 2.6 | 0.00 | 0.00 | 0.00 | 79 | 1022.6 |
| 20260905064350 | 74 | 35 | 0.9 | 2.6 | 0.00 | 0.00 | 0.00 | 81 | 1022.5 |
| 20260905063352 | 73 | 33 | 0.9 | 2.6 | 0.00 | 0.00 | 0.00 | 82 | 1022.5 |
| 20260905062347 | 73 | 33 | 0.9 | 1.7 | 0.00 | 0.00 | 0.00 | 82 | 1022.3 |
| 20260905061342 | 73 | 33 | 0.0 | 1.7 | 0.00 | 0.00 | 0.00 | 83 | 1022.2 |
| 20260905060342 | 73 | 32 | 0.0 | 3.5 | 0.00 | 0.00 | 0.00 | 84 | 1022.3 |
| 20260905055353 | 73 | 33 | 0.0 | 1.7 | 0.00 | 0.00 | 0.00 | 85 | 1022.2 |
| 20260905054350 | 73 | 33 | 0.0 | 0.0 | 0.00 | 0.00 | 0.00 | 85 | 1021.9 |
| 20260905053351 | 73 | 46 | 0.0 | 0.0 | 0.00 | 0.00 | 0.00 | 85 | 1021.8 |
| 20260905052342 | 73 | 46 | 0.0 | 0.0 | 0.00 | 0.00 | 0.00 | 85 | 1021.9 |
| 20260905051344 | 73 | 46 | 0.0 | 0.0 | 0.00 | 0.00 | 0.00 | 84 | 1021.6 |
| 20260905050357 | 73 | 46 | 0.0 | 0.0 | 0.00 | 0.00 | 0.00 | 84 | 1021.6 |
| 20260905045355 | 73 | 46 | 0.0 | 0.0 | 0.00 | 0.00 | 0.00 | 84 | 1021.6 |
| 20260905044357 | 73 | 46 | 0.0 | 0.0 | 0.00 | 0.00 | 0.00 | 84 | 1021.6 |
| 20260905043341 | 74 | 46 | 0.0 | 0.0 | 0.00 | 0.00 | 0.00 | 84 | 1021.6 |
| 20260905042358 | 74 | 46 | 0.0 | 0.0 | 0.00 | 0.00 | 0.00 | 84 | 1021.4 |
| 20260905041355 | 74 | 46 | 0.0 | 0.0 | 0.00 | 0.00 | 0.00 | 83 | 1021.5 |
| 20260905040356 | 74 | 46 | 0.0 | 0.0 | 0.00 | 0.00 | 0.00 | 83 | 1021.4 |
| 20260905035347 | 74 | 46 | 0.0 | 0.0 | 0.00 | 0.00 | 0.00 | 83 | 1021.4 |
| 20260905034347 | 74 | 46 | 0.0 | 2.6 | 0.00 | 0.00 | 0.00 | 83 | 1021.5 |
| 20260905033349 | 75 | 46 | 1.7 | 2.6 | 0.00 | 0.00 | 0.00 | 83 | 1021.3 |
| 20260905032347 | 75 | 48 | 0.0 | 1.7 | 0.00 | 0.00 | 0.00 | 83 | 1021.3 |
| 20260905031348 | 75 | 48 | 0.0 | 1.7 | 0.00 | 0.00 | 0.00 | 83 | 1021.2 |
| 20260905030350 | 75 | 47 | 0.0 | 1.7 | 0.00 | 0.00 | 0.00 | 82 | 1021.3 |
| 20260905025344 | 75 | 47 | 1.7 | 3.5 | 0.00 | 0.00 | 0.00 | 82 | 1021.4 |
| 20260905024343 | 75 | 119 | 1.7 | 3.5 | 0.00 | 0.00 | 0.00 | 81 | 1021.3 |
| 20260905023345 | 75 | 125 | 0.0 | 2.6 | 0.00 | 0.00 | 0.00 | 82 | 1021.2 |
| 20260905022340 | 76 | 126 | 0.0 | 0.9 | 0.00 | 0.00 | 0.00 | 82 | 1021.3 |
| 20260905021357 | 76 | 126 | 0.0 | 1.7 | 0.00 | 0.00 | 0.00 | 81 | 1021.3 |
| 20260905020359 | 76 | 126 | 0.9 | 1.7 | 0.00 | 0.00 | 0.00 | 81 | 1021.4 |
| 20260905015350 | 76 | 126 | 0.0 | 0.0 | 0.00 | 0.00 | 0.00 | 81 | 1021.3 |
| 20260905014346 | 77 | 127 | 0.0 | 0.0 | 0.00 | 0.00 | 0.00 | 81 | 1021.3 |
| 20260905013346 | 77 | 126 | 0.0 | 0.0 | 0.00 | 0.00 | 0.00 | 81 | 1021.3 |
| 20260905012345 | 77 | 127 | 0.0 | 0.0 | 0.00 | 0.00 | 0.00 | 80 | 1021.4 |
| 20260905011344 | 77 | 127 | 0.0 | 0.0 | 0.00 | 0.00 | 0.00 | 80 | 1021.4 |
| 20260905010350 | 77 | 126 | 0.0 | 0.0 | 0.00 | 0.00 | 0.00 | 80 | 1021.4 |
| 20260905005343 | 77 | 126 | 0.0 | 0.0 | 0.00 | 0.00 | 0.00 | 80 | 1021.5 |
| 20260905004344 | 78 | 126 | 0.0 | 0.0 | 0.00 | 0.00 | 0.00 | 79 | 1021.6 |
| 20260905003344 | 78 | 126 | 0.0 | 0.0 | 0.00 | 0.00 | 0.00 | 79 | 1021.5 |
| 20260905002358 | 78 | 126 | 0.0 | 0.0 | 0.00 | 0.00 | 0.00 | 78 | 1021.6 |
| 20260905001356 | 78 | 126 | 0.0 | 0.0 | 0.00 | 0.00 | 0.00 | 78 | 1021.7 |
| 20260905000352 | 78 | 126 | 0.0 | 0.0 | 0.00 | 0.00 | 0.00 | 78 | 1021.6 |
| 20260904235346 | 78 | 127 | 0.0 | 0.0 | 0.00 | 0.00 | 0.00 | 78 | 1021.6 |
| 20260904234349 | 78 | 126 | 0.0 | 0.0 | 0.00 | 0.00 | 0.00 | 78 | 1021.7 |
| 20260904233346 | 78 | 126 | 0.0 | 0.0 | 0.00 | 0.00 | 0.00 | 78 | 1021.7 |
| 20260904232400 | 78 | 126 | 0.0 | 0.9 | 0.00 | 0.00 | 0.00 | 77 | 1021.7 |
| 20260904231358 | 79 | 126 | 0.0 | 1.7 | 0.00 | 0.00 | 0.00 | 77 | 1021.8 |
| 20260904230358 | 79 | 126 | 0.9 | 1.7 | 0.00 | 0.00 | 0.00 | 76 | 1021.9 |
| 20260904225349 | 79 | 126 | 0.9 | 1.7 | 0.00 | 0.00 | 0.00 | 76 | 1021.9 |
| 20260904224344 | 79 | 126 | 0.0 | 0.9 | 0.00 | 0.00 | 0.00 | 75 | 1021.9 |
| 20260904223345 | 79 | 126 | 0.0 | 1.7 | 0.00 | 0.00 | 0.00 | 75 | 1021.9 |
| 20260904222358 | 79 | 126 | 0.9 | 1.7 | 0.00 | 0.00 | 0.00 | 75 | 1021.9 |
| 20260904221351 | 79 | 126 | 0.0 | 2.6 | 0.00 | 0.00 | 0.00 | 74 | 1021.8 |
| 20260904220349 | 80 | 127 | 0.0 | 2.6 | 0.00 | 0.00 | 0.00 | 74 | 1021.8 |
| 20260904215403 | 80 | 126 | 1.7 | 3.5 | 0.00 | 0.00 | 0.00 | 73 | 1021.7 |
| 20260904214342 | 80 | 127 | 1.7 | 3.5 | 0.00 | 0.00 | 0.00 | 72 | 1021.7 |
| 20260904213342 | 80 | 126 | 0.0 | 0.0 | 0.00 | 0.00 | 0.00 | 72 | 1021.7 |
| 20260904212344 | 80 | 126 | 0.0 | 0.9 | 0.00 | 0.00 | 0.00 | 73 | 1021.9 |
| 20260904211345 | 80 | 126 | 0.0 | 2.6 | 0.00 | 0.00 | 0.00 | 73 | 1021.8 |
| 20260904210349 | 81 | 126 | 0.0 | 0.0 | 0.00 | 0.00 | 0.00 | 73 | 1021.8 |
| 20260904205343 | 81 | 126 | 0.0 | 0.0 | 0.00 | 0.00 | 0.00 | 74 | 1021.9 |
| 20260904204349 | 81 | 126 | 0.0 | 0.0 | 0.00 | 0.00 | 0.00 | 74 | 1021.8 |
| 20260904203400 | 81 | 126 | 0.0 | 0.9 | 0.00 | 0.00 | 0.00 | 73 | 1021.9 |
| 20260904202350 | 81 | 126 | 0.0 | 0.9 | 0.00 | 0.00 | 0.00 | 74 | 1021.9 |
| 20260904201348 | 81 | 126 | 0.0 | 0.9 | 0.00 | 0.00 | 0.00 | 74 | 1021.8 |
| 20260904200344 | 81 | 126 | 0.0 | 0.9 | 0.00 | 0.00 | 0.00 | 75 | 1021.8 |
| 20260904195348 | 82 | 126 | 0.9 | 1.7 | 0.00 | 0.00 | 0.00 | 76 | 1021.7 |
| 20260904194402 | 81 | 126 | 0.0 | 2.6 | 0.00 | 0.00 | 0.00 | 76 | 1021.6 |
| 20260904193354 | 82 | 126 | 1.7 | 3.5 | 0.00 | 0.00 | 0.00 | 77 | 1021.7 |
| 20260904192405 | 82 | 126 | 1.7 | 3.5 | 0.00 | 0.00 | 0.00 | 77 | 1021.6 |
| 20260904191354 | 82 | 126 | 0.9 | 1.7 | 0.00 | 0.00 | 0.00 | 77 | 1021.6 |
| 20260904190344 | 82 | 126 | 0.9 | 2.6 | 0.00 | 0.00 | 0.00 | 78 | 1021.5 |
| 20260904185350 | 82 | 126 | 0.0 | 1.7 | 0.00 | 0.00 | 0.00 | 78 | 1021.3 |
| 20260904184400 | 82 | 126 | 1.7 | 2.6 | 0.00 | 0.00 | 0.00 | 78 | 1021.1 |
| 20260904183352 | 82 | 127 | 0.9 | 5.2 | 0.00 | 0.00 | 0.00 | 78 | 1020.9 |
| 20260904182342 | 82 | 127 | 2.6 | 5.2 | 0.00 | 0.00 | 0.00 | 78 | 1020.7 |
| 20260904181342 | 82 | 121 | 4.3 | 6.1 | 0.00 | 0.00 | 0.00 | 77 | 1020.6 |
| 20260904180343 | 83 | 149 | 3.5 | 7.8 | 0.00 | 0.00 | 0.00 | 77 | 1020.4 |
| 20260904175355 | 83 | 110 | 4.3 | 7.8 | 0.00 | 0.00 | 0.00 | 75 | 1020.5 |
| 20260904174353 | 83 | 134 | 3.5 | 7.0 | 0.00 | 0.00 | 0.00 | 74 | 1020.5 |
| 20260904173343 | 83 | 130 | 1.7 | 7.8 | 0.00 | 0.00 | 0.00 | 74 | 1020.4 |
| 20260904172359 | 83 | 137 | 4.3 | 8.7 | 0.00 | 0.00 | 0.00 | 75 | 1020.2 |
| 20260904171343 | 83 | 155 | 5.2 | 13.0 | 0.00 | 0.00 | 0.00 | 75 | 1020.1 |
| 20260904170347 | 83 | 117 | 7.0 | 13.0 | 0.00 | 0.00 | 0.00 | 74 | 1019.9 |
| 20260904165403 | 83 | 119 | 7.0 | 13.9 | 0.00 | 0.00 | 0.00 | 72 | 1019.9 |
| 20260904164350 | 84 | 102 | 5.2 | 13.9 | 0.00 | 0.00 | 0.00 | 70 | 1020.1 |
| 20260904163348 | 84 | 119 | 6.1 | 11.3 | 0.00 | 0.00 | 0.00 | 69 | 1020.0 |
| 20260904162343 | 84 | 113 | 6.1 | 13.0 | 0.00 | 0.00 | 0.00 | 68 | 1020.1 |
| 20260904161355 | 85 | 97 | 5.2 | 11.3 | 0.00 | 0.00 | 0.00 | 68 | 1020.1 |
| 20260904160349 | 85 | 144 | 7.0 | 12.2 | 0.00 | 0.00 | 0.00 | 68 | 1020.1 |
| 20260904155406 | 85 | 148 | 4.3 | 12.2 | 0.00 | 0.00 | 0.00 | 68 | 1020.1 |
| 20260904154359 | 85 | 111 | 5.2 | 13.0 | 0.00 | 0.00 | 0.00 | 67 | 1020.1 |
| 20260904153354 | 86 | 102 | 6.1 | 12.2 | 0.00 | 0.00 | 0.00 | 66 | 1020.1 |
| 20260904152402 | 86 | 144 | 5.2 | 12.2 | 0.00 | 0.00 | 0.00 | 66 | 1020.0 |
| 20260904151356 | 86 | 122 | 7.0 | 13.9 | 0.00 | 0.00 | 0.00 | 65 | 1020.1 |
| 20260904150348 | 86 | 129 | 7.0 | 11.3 | 0.00 | 0.00 | 0.00 | 65 | 1020.1 |
| 20260904145403 | 87 | 125 | 5.2 | 10.4 | 0.00 | 0.00 | 0.00 | 64 | 1020.1 |